AB8YS Weather Reports


Display with metric or nautical units.
time (UTC)temp
F
wind
direction
speed
MPH
gust
MPH
rain 1hr
in
rain 24hr
in
rain mn
in
humidity
%
barometer
mb
20260509073138 53 265 0.0 0.0 0.00 0.00 0.00 97 1008.6
20260509071558 53 265 0.0 0.0 0.00 0.00 0.00 97 1008.8
20260509070100 53 264 0.0 1.0 0.00 0.00 0.00 97 1008.9
20260509064554 54 245 0.0 0.0 0.00 0.00 0.00 97 1009.1
20260509063053 54 176 0.0 0.0 0.00 0.00 0.00 96 1009.1
20260509061558 54 176 0.0 0.0 0.00 0.00 0.00 96 1009.1
20260509054609 54 176 0.0 0.0 0.00 0.00 0.00 96 1009.6
20260509053054 54 176 0.0 0.0 0.00 0.00 0.00 95 1009.5
20260509051548 54 176 0.0 0.0 0.00 0.00 0.00 95 1009.6
20260509050053 54 176 0.0 0.0 0.00 0.00 0.00 95 1009.7
20260509044547 54 176 0.0 0.0 0.00 0.00 0.00 95 1009.7
20260509043048 54 176 0.0 0.0 0.00 0.00 0.00 94 1009.7
20260509041543 54 176 0.0 0.0 0.00 0.00 0.00 94 1009.9
20260509040057 54 176 0.0 0.0 0.00 0.00 0.00 94 1009.9
20260509034548 54 176 0.0 0.0 0.00 0.00 0.00 93 1009.9
20260509033040 54 176 0.0 0.0 0.00 0.00 0.00 93 1009.9
20260509031540 54 176 0.0 0.0 0.00 0.00 0.00 93 1009.9
20260509030043 54 176 0.0 0.0 0.00 0.00 0.00 92 1010.1
20260509024539 55 176 0.0 0.0 0.00 0.00 0.00 92 1010.4
20260509023038 55 176 0.0 0.0 0.00 0.00 0.00 91 1010.3
20260509021538 55 176 0.0 0.0 0.00 0.00 0.00 90 1010.3
20260509020040 55 173 0.0 0.0 0.00 0.00 0.00 87 1010.2
20260509014535 56 173 0.0 0.0 0.00 0.00 0.00 85 1010.0
20260509013038 56 173 0.0 0.0 0.00 0.00 0.00 83 1009.8
20260509011544 57 173 0.0 0.0 0.00 0.00 0.00 81 1009.8
20260509010039 57 173 0.0 0.0 0.00 0.00 0.00 84 1009.8
20260509004540 57 173 0.0 0.0 0.00 0.00 0.00 88 1009.5
20260509003033 57 173 0.0 0.0 0.00 0.00 0.00 87 1009.3
20260509001532 57 173 0.0 0.0 0.00 0.00 0.00 86 1009.2
20260509000031 58 173 0.0 0.0 0.00 0.00 0.00 84 1009.4
20260508234530 58 173 0.0 0.0 0.00 0.00 0.00 82 1009.5
20260508233029 59 173 0.0 0.0 0.00 0.00 0.00 78 1009.4
20260508231528 60 173 0.0 0.0 0.00 0.00 0.00 72 1009.3
20260508230027 61 173 0.0 0.0 0.00 0.00 0.00 68 1009.2
20260508224528 62 265 0.0 0.0 0.00 0.00 0.00 65 1009.1
20260508223038 62 265 0.0 0.0 0.00 0.00 0.00 58 1009.2
20260508221525 63 265 0.0 0.0 0.00 0.00 0.00 54 1009.2
20260508220026 64 265 0.0 0.0 0.00 0.00 0.00 53 1009.2
20260508214529 64 264 0.0 0.0 0.00 0.00 0.00 50 1009.2
20260508213031 64 264 0.0 0.0 0.00 0.00 0.00 51 1009.1
20260508211522 65 264 0.0 1.0 0.00 0.00 0.00 50 1009.2
20260508210021 65 259 0.0 0.0 0.00 0.00 0.00 47 1009.6
20260508204525 65 239 0.0 2.0 0.00 0.00 0.00 48 1009.7
20260508203017 66 264 0.0 1.0 0.00 0.00 0.00 48 1010.0
20260508201517 66 271 0.0 1.0 0.00 0.00 0.00 50 1009.9
20260508200016 66 269 0.0 1.0 0.00 0.00 0.00 46 1010.0
20260508194514 66 252 0.0 1.0 0.00 0.00 0.00 46 1010.1
20260508193013 67 250 0.0 3.0 0.00 0.00 0.00 44 1010.3
20260508191511 69 271 0.0 2.0 0.00 0.00 0.00 43 1010.5
20260508190010 68 253 0.0 4.0 0.00 0.00 0.00 45 1010.8
20260508184506 69 266 0.0 2.0 0.00 0.00 0.00 46 1011.1
20260508183004 68 270 1.0 6.0 0.00 0.00 0.00 47 1011.3
20260508181500 67 267 0.0 4.0 0.00 0.00 0.00 46 1011.5
20260508180100 66 270 0.0 3.0 0.00 0.00 0.00 49 1011.8
20260508174602 65 265 1.0 3.0 0.00 0.00 0.00 50 1011.9
20260508173055 65 266 0.0 3.0 0.00 0.00 0.00 49 1012.2
20260508171554 66 250 1.0 6.0 0.00 0.00 0.00 47 1012.4
20260508170052 67 274 0.0 3.0 0.00 0.00 0.00 47 1012.5
20260508164551 66 261 0.0 4.0 0.00 0.00 0.00 48 1013.0
20260508163049 67 274 0.0 6.0 0.00 0.00 0.00 52 1013.1
20260508161545 66 321 0.0 2.0 0.00 0.00 0.00 51 1013.2
20260508160100 66 267 0.0 3.0 0.00 0.00 0.00 51 1013.4
20260508154538 65 274 1.0 4.0 0.00 0.00 0.00 50 1013.5
20260508153042 63 282 0.0 2.0 0.00 0.00 0.00 55 1013.6
20260508151536 63 269 0.0 5.0 0.00 0.00 0.00 54 1013.7
20260508150036 63 299 1.0 4.0 0.00 0.00 0.00 50 1013.7
20260508144530 62 269 0.0 3.0 0.00 0.00 0.00 52 1014.0
20260508143033 61 272 0.0 2.0 0.00 0.00 0.00 54 1014.2
20260508141531 60 272 0.0 2.0 0.00 0.00 0.00 52 1014.3
20260508140024 60 266 0.0 5.0 0.00 0.00 0.00 52 1014.3
20260508134529 59 266 1.0 4.0 0.00 0.00 0.00 54 1014.5
20260508133019 58 263 0.0 4.0 0.00 0.00 0.00 57 1014.4
20260508131515 57 273 0.0 2.0 0.00 0.00 0.00 57 1014.2
20260508130013 56 274 0.0 3.0 0.00 0.00 0.00 60 1014.2
20260508124510 55 227 0.0 3.0 0.00 0.00 0.00 60 1014.2
20260508123004 53 250 0.0 3.0 0.00 0.00 0.00 63 1014.3
20260508121609 51 236 0.0 1.0 0.00 0.00 0.00 67 1014.4
20260508120057 50 258 0.0 1.0 0.00 0.00 0.00 68 1014.3
20260508114556 50 255 0.0 1.0 0.00 0.00 0.00 67 1014.2
20260508113053 49 276 0.0 1.0 0.00 0.00 0.00 69 1014.0
20260508111550 48 245 0.0 1.0 0.00 0.00 0.00 70 1014.0
20260508110053 47 252 0.0 1.0 0.00 0.00 0.00 71 1013.8
20260508104546 47 255 0.0 1.0 0.00 0.00 0.00 73 1013.6
20260508103046 47 255 0.0 1.0 0.00 0.00 0.00 73 1013.6
20260508101545 46 254 0.0 1.0 0.00 0.00 0.00 74 1013.8
20260508100044 46 238 0.0 1.0 0.00 0.00 0.00 74 1013.8
20260508094554 45 240 0.0 1.0 0.00 0.00 0.00 75 1013.8
20260508093043 46 262 0.0 1.0 0.00 0.00 0.00 74 1014.0
20260508091543 46 263 0.0 0.0 0.00 0.00 0.00 74 1013.9
20260508090042 45 265 0.0 0.0 0.00 0.00 0.00 77 1013.9
20260508084542 44 265 0.0 1.0 0.00 0.00 0.00 77 1013.9
20260508083116 44 266 0.0 0.0 0.00 0.00 0.00 78 1014.0
20260508081542 45 266 0.0 0.0 0.00 0.00 0.00 76 1013.9
20260508080041 45 266 0.0 1.0 0.00 0.00 0.00 75 1013.8
20260508074537 46 252 0.0 0.0 0.00 0.00 0.00 73 1013.8